Lid_Strength_Index
18 17 16 16 16 16 16 16 15 15 13 12 11 11 11 10 11 10 10 11 11 11
19 18 18 16 16 16 16 16 16 15 15 14 14 12 11 12 13 12 12 12 11 11
20 19 18 18 17 16 16 16 16 16 16 15 15 15 14 14 13 14 14 14 14 13
21 20 19 19 18 17 16 16 16 16 16 16 16 15 15 16 15 15 16 16 16 16
21 21 20 20 19 18 18 16 16 16 17 17 17 16 16 16 16 16 16 16 16 16
22 21 21 20 20 19 19 18 17 16 16 17 17 17 16 16 17 17 16 16 16 16
23 22 21 21 20 20 19 19 18 16 16 16 16 16 16 16 15 15 15 16 16 15
23 22 21 21 21 20 20 19 18 17 14 14 15 15 15 16 16 16 16 16 15 14
23 23 22 22 22 21 21 20 19 19 17 14 14 13 14 15 15 15 16 16 15 15
24 24 23 22 22 22 22 21 21 20 18 16 14 13 14 15 16 16 16 15 15 15
25 25 24 24 23 22 22 22 22 21 20 18 15 14 14 15 16 16 16 16 15 15
26 26 25 25 25 23 22 22 22 21 20 19 17 15 15 16 16 16 16 15 15 14
25 26 26 26 26 25 22 22 22 22 21 18 18 15 16 16 16 17 17 16 15 13
25 25 26 25 25 25 24 23 23 22 22 21 18 16 15 16 17 17 17 18 17 14